Overview Statistics Trail Chart Weather Telemetry Raw packets
 

This is the latest recevied weather packets stored in our database for station/object N2ZVN. If no packets are shown the sender has not sent any weather packets the latest 10 day(s).

<< 1 2 3 4 >>
Time Temp. Humidity Pressure Rain* Wind** Luminosity Snow
1788718057 20° C 73% 1020.8 hPa 0 mm - 568 W/m² -
1788717752 20° C 74% 1020.8 hPa 0 mm - 76 W/m² -
1788717450 20° C 73% 1020.7 hPa 0 mm - 61 W/m² -
1788717146 20° C 75% 1020.7 hPa 0 mm - 94 W/m² -
1788716844 20° C 74% 1020.6 hPa 0 mm - 81 W/m² -
1788716544 20° C 74% 1020.8 hPa 0 mm - 54 W/m² -
1788716239 20° C 75% 1020.6 hPa 0 mm - 82 W/m² -
1788715935 20° C 76% 1020.7 hPa 0 mm - 98 W/m² -
1788715634 20° C 74% 1020.9 hPa 0 mm - 83 W/m² -
1788715330 20.56° C 74% 1020.8 hPa 0 mm - 91 W/m² -
1788715030 20° C 73% 1020.8 hPa 0 mm - 128 W/m² -
1788714725 20° C 73% 1021 hPa 0 mm - 169 W/m² -
1788714421 20° C 76% 1020.9 hPa 0 mm - 783 W/m² -
1788714121 20° C 75% 1020.7 hPa 0 mm - 157 W/m² -
1788713817 20° C 76% 1020.7 hPa 0 mm - 74 W/m² -
1788713518 20.56° C 74% 1020.8 hPa 0 mm - 98 W/m² -
1788713217 21.11° C 73% 1020.8 hPa 0 mm - 484 W/m² -
1788712912 20.56° C 73% 1020.7 hPa 0 mm - 785 W/m² -
1788712608 20° C 75% 1020.5 hPa 0 mm - 623 W/m² -
1788712304 20° C 73% 1020.6 hPa 0 mm - 158 W/m² -
1788712001 20° C 74% 1020.5 hPa 0 mm - 405 W/m² -
1788711700 20° C 75% 1020.5 hPa 0 mm - 92 W/m² -
1788711396 20.56° C 72% 1020.6 hPa 0 mm - 104 W/m² -
1788711094 20.56° C 74% 1020.8 hPa 0 mm - 751 W/m² -
1788710793 21.11° C 74% 1020.7 hPa 0 mm - 164 W/m² -

* Rain latest hour (hover to see other rain measurements)
** Current wind speed in m/s (hover to see current wind gust speed)